Location: Bethera
(33.2010°N, 79.7880°W)
Time: 13:41:18
(UTC-04:00)

Amateur Radio Satellites - All Passes

Search period start: 24 May 2017 13:11
Search period end: 25 May 2017 13:11
Location: Bethera, 33.2010°N, 79.7880°W

Satellite Date Start Highest point End Downlink Frequencies (MHz)
Time Altitude Azimuth
NANOSAT C BR1 24 May 13:16:58 13:20:21 24° 263° (W) 13:23:45 145.865
POLYITAN 1 24 May 13:19:16 13:22:24 21° 264° (W) 13:25:34 437.675
Gurwin Techsat 1B 24 May 13:24:15 13:27:56 19° 66° (ENE) 13:31:36 435.225
YUBILEINY 24 May 13:28:01 13:36:54 80° 84° (E) 13:45:44 435.215
QB50P2 24 May 13:28:36 13:31:00 15° 266° (W) 13:33:26 145.880/145.840
DUCHIFAT 1 24 May 13:29:34 13:32:33 19° 265° (W) 13:35:35 145.980
AO-85 24 May 13:46:47 13:47:22 10° 49° (NE) 13:47:57 145.980
BUGSAT 1 24 May 13:57:36 14:01:06 29° 262° (W) 14:04:37 437.445
VELOX 1 24 May 13:58:09 14:02:29 62° 285° (WNW) 14:06:47 145.980
Oscar 19 24 May 14:05:28 14:10:39 87° 76° (ENE) 14:15:53 437.125/150
SPROUT 24 May 14:12:13 14:16:12 38° 286° (WNW) 14:20:09 437.525
AO-7 24 May 14:24:47 14:30:14 20° 57° (ENE) 14:35:42 .
50 SAT 24 May 14:34:18 14:37:19 30° 287° (WNW) 14:40:19 437.505
O/OREOS (USA 219) 24 May 14:35:43 14:39:38 28° 65° (ENE) 14:43:30 437.305
UKube-1 24 May 14:39:37 14:43:56 86° 108° (ESE) 14:48:13 .
DX 1 24 May 14:42:07 14:46:22 57° 285° (WNW) 14:50:36 434.975-435.025
BEESAT 3 24 May 14:47:41 14:49:40 13° 50° (NE) 14:51:37 437.485
RS-15 24 May 15:00:08 15:08:09 21° 260° (W) 15:15:58 29.354- 29.394
Gurwin Techsat 1B 24 May 15:02:27 15:07:29 44° 260° (W) 15:12:33 435.225
ITAMSAT 1 24 May 15:02:55 15:06:53 23° 68° (ENE) 15:10:51 435.822/435.867
AO-85 24 May 15:23:59 15:28:04 66° 243° (WSW) 15:32:24 145.980
YUBILEINY 24 May 15:27:25 15:32:32 17° 280° (W) 15:37:41 435.215
ITUPSAT 1 24 May 15:52:23 15:56:54 39° 99° (E) 16:01:23 437.325
BEESAT 2 24 May 15:58:01 16:01:29 27° 55° (NE) 16:04:56 435.950
AO-7 24 May 16:13:45 16:22:02 81° 254° (WSW) 16:30:22 .
O/OREOS (USA 219) 24 May 16:15:29 16:18:48 20° 259° (W) 16:22:06 437.305
BEESAT 3 24 May 16:23:38 16:27:28 45° 246° (WSW) 16:31:14 437.485
BEESAT 24 May 16:27:24 16:32:12 81° 285° (WNW) 16:36:59 436.000
MOZHAYETS 4 24 May 16:31:28 16:36:05 61° 101° (E) 16:40:39
ITAMSAT 1 24 May 16:41:24 16:46:05 35° 262° (W) 16:50:47 435.822/435.867
NO-84 24 May 16:41:47 16:43:47 14° 34° (NE) 16:45:42 435.350 FM
CUBESAT XI-V 24 May 17:11:27 17:15:20 26° 96° (E) 17:19:10 437.345
ITUPSAT 1 24 May 17:31:09 17:34:22 18° 293° (WNW) 17:37:35 437.325
BEESAT 2 24 May 17:36:05 17:39:03 20° 250° (WSW) 17:41:59 435.950
KKS-1 24 May 17:42:21 17:46:38 48° 100° (E) 17:50:55 437.445
XW-2D 24 May 17:48:17 17:50:16 14° 69° (ENE) 17:52:13 145.860 - 145.880
XW-2B 24 May 17:55:39 17:58:05 17° 70° (ENE) 18:00:31 145.730 - 145.750
XW-2C 24 May 18:08:25 18:11:31 24° 72° (ENE) 18:14:39 145.795 - 145.815
XW-2F 24 May 18:09:17 18:12:20 24° 72° (ENE) 18:15:25 145.980 - 146.000
DOVE 4 24 May 18:10:59 18:15:41 60° 76° (ENE) 18:20:07 437.250
MOZHAYETS 4 24 May 18:11:20 18:12:39 11° 295° (WNW) 18:13:58
AO-7 24 May 18:13:06 18:15:44 12° 268° (W) 18:18:22 .
NUDT-PHONESAT 24 May 18:15:52 18:18:47 22° 72° (ENE) 18:21:43 437.300
NO-84 24 May 18:18:17 18:21:38 48° 233° (SW) 18:24:41 435.350 FM
CUTE-I 24 May 18:19:10 18:24:00 37° 71° (ENE) 18:28:51 437.470
STARS 24 May 18:19:59 18:24:17 53° 101° (E) 18:28:34 437.465
KAITUO 1B 24 May 18:20:45 18:23:56 27° 72° (ENE) 18:27:09 145.475/437.950
HO-68 24 May 18:28:14 18:32:30 17° 60° (ENE) 18:36:47 435.675
LilacSat-2 24 May 18:43:03 18:46:51 80° 78° (ENE) 18:50:42 437.200
CUBESAT XI-V 24 May 18:48:49 18:52:33 24° 290° (WNW) 18:56:15 437.345
PCSat 24 May 19:13:48 19:18:10 25° 107° (ESE) 19:22:32 145.827
XW-2D 24 May 19:20:45 19:24:07 30° 263° (W) 19:27:31 145.860 - 145.880
KKS-1 24 May 19:20:48 19:22:44 13° 294° (WNW) 19:24:39 437.445
XW-2A 24 May 19:23:05 19:25:27 18° 71° (ENE) 19:27:50 145.665 - 145.685
CUTE 1.7 + AOD 2 24 May 19:28:03 19:31:47 30° 73° (ENE) 19:35:33 437.475
XW-2B 24 May 19:28:52 19:32:01 25° 263° (W) 19:35:14 145.730 - 145.750
CUBEBUG 2 24 May 19:42:55 19:45:55 20° 70° (ENE) 19:48:57 437.445
XW-2C 24 May 19:43:11 19:45:39 17° 265° (W) 19:48:09 145.795 - 145.815
XW-2F 24 May 19:43:53 19:46:24 17° 265° (W) 19:48:57 145.980 - 146.000
NUDT-PHONESAT 24 May 19:50:06 19:52:36 17° 265° (W) 19:55:06 437.300
DOVE 4 24 May 19:53:11 19:53:33 10° 267° (W) 19:53:54 437.250
AAUSAT CUBESAT 2 24 May 19:54:03 19:56:45 17° 70° (ENE) 19:59:29 437.432
KAITUO 1B 24 May 19:55:46 19:57:56 15° 266° (W) 20:00:06 145.475/437.950
UWE-3 24 May 19:58:20 20:01:06 18° 69° (ENE) 20:03:55 435.000/436.395/437.385
STARS 24 May 19:58:44 20:00:06 11° 294° (WNW) 20:01:29 437.465
CUTE-I 24 May 20:00:04 20:04:05 22° 265° (W) 20:08:07 437.470
HO-68 24 May 20:12:12 20:19:22 79° 256° (WSW) 20:26:35 435.675
Tancredo 1 24 May 20:16:41 20:19:07 22° 129° (SE) 20:21:33 437.200
SEEDS 24 May 20:21:09 20:25:23 87° 83° (E) 20:29:39 437.485
ISS 24 May 20:26:24 20:28:41 18° 128° (SE) 20:30:59 437.550
Oscar 11 24 May 20:39:39 20:42:59 22° 70° (ENE) 20:46:19 .
STRAND 1 24 May 20:52:39 20:57:49 81° 284° (WNW) 21:02:57 437.568
XW-2A 24 May 20:55:55 20:58:05 16° 265° (W) 21:00:15 145.665 - 145.685
PCSat 24 May 20:56:24 21:01:19 35° 302° (WNW) 21:06:17 145.827
AO-73 24 May 21:02:41 21:06:43 51° 75° (ENE) 21:10:51 145.935
CUTE 1.7 + AOD 2 24 May 21:04:45 21:07:36 17° 266° (W) 21:10:29 437.475
ZACube-1 24 May 21:15:11 21:19:21 85° 76° (ENE) 21:23:37 437.345
M-CUBED/EXP-1 PRIME 24 May 21:18:13 21:20:53 23° 102° (ESE) 21:23:32 437.505
CUBEBUG 2 24 May 21:18:57 21:22:21 25° 264° (W) 21:25:48 437.445
AAUSAT CUBESAT 2 24 May 21:28:14 21:31:56 30° 263° (W) 21:35:39 437.432
UWE-3 24 May 21:33:42 21:37:19 29° 263° (W) 21:40:59 435.000/436.395/437.385
Tancredo 1 24 May 21:52:15 21:54:47 23° 323° (NW) 21:57:20 437.200
ISS 24 May 22:02:00 22:04:59 32° 322° (NW) 22:07:59 437.550
DELFI C3 24 May 22:06:36 22:10:33 61° 76° (ENE) 22:14:29 145.870
Oscar 11 24 May 22:15:21 22:18:56 25° 264° (W) 22:22:33 .
SO-50 24 May 22:17:32 22:20:44 19° 110° (ESE) 22:23:55 436.795
PRISM 24 May 22:35:00 22:38:34 29° 98° (E) 22:42:06 437.425
EO-88 24 May 22:42:20 22:45:55 60° 260° (W) 22:49:33 145.990 - 145.960
FO-29 24 May 22:50:43 22:57:00 45° 100° (E) 23:03:57 435.910
TIGRISAT 24 May 22:52:07 22:56:24 36° 99° (E) 23:00:41 435.000
M-CUBED/EXP-1 PRIME 24 May 22:53:36 22:55:07 13° 296° (WNW) 22:56:38 437.505
UNISAT 6 24 May 23:22:55 23:27:32 88° 282° (WNW) 23:32:13 437.425
LO-87 24 May 23:32:41 23:36:10 62° 77° (ENE) 23:39:41 145.935 - 145.965
AIST 2D 24 May 23:35:36 23:36:14 10° 93° (E) 23:36:52 435.315
ESTCUBE 1 24 May 23:45:50 23:50:12 49° 74° (ENE) 23:54:35 437.505/2401.250
SO-50 24 May 23:56:39 00:00:54 36° 304° (WNW) 00:05:08 436.795
PRISM 25 May 00:10:59 00:13:34 17° 291° (WNW) 00:16:10 437.425
EO-79 25 May 00:18:31 00:21:44 21° 96° (E) 00:24:55 145.935-145.965
TIGRISAT 25 May 00:29:40 00:32:45 18° 291° (WNW) 00:35:51 435.000
YUBILEINY 25 May 00:31:14 00:36:13 17° 80° (E) 00:41:13 435.215
FO-29 25 May 00:36:24 00:41:46 28° 291° (WNW) 00:47:38 435.910
VELOX 1 25 May 00:50:42 00:55:05 66° 76° (ENE) 00:59:29 145.980
RS-15 25 May 00:55:46 01:02:16 16° 98° (E) 01:08:50 29.354- 29.394
SPROUT 25 May 01:00:39 01:04:53 88° 73° (ENE) 01:09:07 437.525
50 SAT 25 May 01:01:57 01:05:13 39° 75° (ENE) 01:08:28 437.505
NANOSAT C BR1 25 May 01:04:16 01:08:30 70° 102° (ESE) 01:12:44 145.865
AIST 2D 25 May 01:06:17 01:09:31 33° 286° (WNW) 01:12:43 435.315
POLYITAN 1 25 May 01:06:48 01:11:05 85° 102° (ESE) 01:15:22 437.675
QB50P2 25 May 01:15:23 01:19:37 68° 284° (WNW) 01:23:51 145.880/145.840
DUCHIFAT 1 25 May 01:16:06 01:20:21 88° 106° (ESE) 01:24:36 145.980
ESTCUBE 1 25 May 01:25:27 01:27:12 12° 267° (W) 01:28:58 437.505/2401.250
UKube-1 25 May 01:29:44 01:33:46 40° 73° (ENE) 01:37:49 .
DX 1 25 May 01:32:56 01:37:15 69° 76° (ENE) 01:41:35 434.975-435.025
BUGSAT 1 25 May 01:42:35 01:46:36 48° 100° (E) 01:50:38 437.445
EO-79 25 May 01:53:52 01:57:24 26° 289° (WNW) 02:00:55 145.935-145.965
Oscar 19 25 May 02:21:33 02:26:27 42° 99° (E) 02:31:17 437.125/150
YUBILEINY 25 May 02:23:10 02:31:52 80° 276° (W) 02:40:40 435.215
ITUPSAT 1 25 May 02:55:12 02:59:16 29° 70° (ENE) 03:03:20 437.325
RS-15 25 May 03:00:48 03:12:47 83° 115° (ESE) 03:25:11 29.354- 29.394
UKube-1 25 May 03:07:49 03:09:55 13° 266° (W) 03:12:02 .
BUGSAT 1 25 May 03:20:21 03:21:29 11° 293° (WNW) 03:22:37 437.445
ITAMSAT 1 25 May 03:22:23 03:23:12 10° 92° (E) 03:24:00 435.822/435.867
Gurwin Techsat 1B 25 May 03:22:36 03:27:56 79° 283° (WNW) 03:33:14 435.225
MOZHAYETS 4 25 May 03:29:09 03:33:18 34° 72° (ENE) 03:37:28
BEESAT 25 May 03:29:18 03:34:01 71° 75° (ENE) 03:38:46 436.000
JUGNU 25 May 03:46:54 03:50:05 15° 166° (SSE) 03:53:16 437.505
Oscar 19 25 May 04:01:51 04:05:22 19° 294° (WNW) 04:08:53 437.125/150
CUBESAT XI-V 25 May 04:11:20 04:14:19 17° 68° (ENE) 04:17:18 437.345
Tancredo 1 25 May 04:19:53 04:22:48 40° 40° (NE) 04:25:42 437.200
AO-7 25 May 04:20:19 04:28:15 46° 101° (ESE) 04:36:09 .
YUBILEINY 25 May 04:26:50 04:30:02 12° 295° (WNW) 04:33:14 435.215
ISS 25 May 04:32:59 04:36:01 35° 39° (NE) 04:39:02 437.550
ITUPSAT 1 25 May 04:33:14 04:37:01 23° 264° (W) 04:40:48 437.325
KKS-1 25 May 04:36:32 04:40:13 26° 71° (ENE) 04:43:56 437.445
O/OREOS (USA 219) 25 May 04:42:57 04:47:32 75° 107° (ESE) 04:52:07 437.305
ITAMSAT 1 25 May 04:57:51 05:03:03 72° 285° (WNW) 05:08:14 435.822/435.867
MOZHAYETS 4 25 May 05:07:24 05:10:29 18° 266° (W) 05:13:36
STARS 25 May 05:12:42 05:16:22 27° 71° (ENE) 05:20:04 437.465
RS-15 25 May 05:16:36 05:26:45 30° 318° (NW) 05:37:07 29.354- 29.394
JUGNU 25 May 05:34:00 05:38:27 22° 176° (S) 05:42:53 437.505
AO-85 25 May 05:34:22 05:38:38 71° 298° (WNW) 05:42:41 145.980
CUBESAT XI-V 25 May 05:46:54 05:51:19 40° 262° (W) 05:55:45 437.345
BEESAT 2 25 May 05:47:04 05:48:44 12° 108° (ESE) 05:50:23 435.950
PCSat 25 May 05:47:49 05:53:15 75° 64° (ENE) 05:58:39 145.827
Tancredo 1 25 May 05:57:08 05:58:14 11° 234° (SW) 05:59:21 437.200
BEESAT 3 25 May 06:08:49 06:12:45 80° 115° (ESE) 06:16:44 437.485
ISS 25 May 06:10:14 06:12:16 16° 233° (SW) 06:14:17 437.550
SRMSAT 25 May 06:11:39 06:14:26 13° 165° (SSE) 06:17:13 437.500
KKS-1 25 May 06:13:17 06:16:42 22° 264° (W) 06:20:07 437.445
AO-7 25 May 06:13:25 06:20:44 36° 297° (WNW) 06:28:04 .
DOVE 4 25 May 06:14:35 06:17:38 19° 96° (E) 06:20:44 437.250
LilacSat-2 25 May 06:22:25 06:23:52 12° 93° (E) 06:25:18 437.200
CUTE-I 25 May 06:40:58 06:44:56 21° 95° (E) 06:48:54 437.470
STARS 25 May 06:49:26 06:52:39 20° 264° (W) 06:55:53 437.465
XW-2D 25 May 06:57:05 07:00:36 33° 98° (E) 07:04:05 145.860 - 145.880
XW-2B 25 May 07:04:51 07:08:31 41° 99° (E) 07:12:09 145.730 - 145.750
XW-2C 25 May 07:18:17 07:22:07 66° 100° (E) 07:25:55 145.795 - 145.815
XW-2F 25 May 07:18:37 07:22:26 63° 99° (E) 07:26:13 145.980 - 146.000
BEESAT 2 25 May 07:22:19 07:26:03 40° 302° (WNW) 07:29:51 435.950
JUGNU 25 May 07:22:31 07:26:51 21° 186° (S) 07:31:10 437.505
NUDT-PHONESAT 25 May 07:23:11 07:26:53 56° 100° (E) 07:30:34 437.300
KAITUO 1B 25 May 07:29:11 07:33:00 71° 102° (ESE) 07:36:45 145.475/437.950
PCSat 25 May 07:34:42 07:35:55 11° 258° (WSW) 07:37:07 145.827
RS-15 25 May 07:41:45 07:45:34 12° 353° (N) 07:49:22 29.354- 29.394
HO-68 25 May 07:45:32 07:51:19 25° 96° (E) 07:57:02 435.675
DOVE 4 25 May 07:51:50 07:55:16 25° 288° (WNW) 07:58:48 437.250
LilacSat-2 25 May 07:54:40 07:58:14 35° 286° (WNW) 08:01:46 437.200
NO-84 25 May 07:56:04 07:57:35 12° 119° (ESE) 07:59:05 435.350 FM
SRMSAT 25 May 07:58:34 08:02:56 21° 175° (S) 08:07:17 437.500
M-CUBED/EXP-1 PRIME 25 May 07:59:51 08:03:03 21° 67° (ENE) 08:06:06 437.505
STRAND 1 25 May 08:04:10 08:09:15 88° 257° (WSW) 08:14:23 437.568
SEEDS 25 May 08:10:01 08:13:04 19° 95° (E) 08:16:04 437.485
CUTE-I 25 May 08:20:07 08:25:02 39° 289° (WNW) 08:29:57 437.470
XW-2A 25 May 08:20:30 08:23:41 34° 98° (E) 08:26:52 145.665 - 145.685
SO-50 25 May 08:31:24 08:35:51 59° 59° (ENE) 08:40:19 436.795
XW-2D 25 May 08:32:39 08:34:26 13° 291° (WNW) 08:36:12 145.860 - 145.880
XW-2B 25 May 08:41:22 08:42:16 11° 292° (WNW) 08:43:09 145.730 - 145.750
CUTE 1.7 + AOD 2 25 May 08:52:06 08:56:21 73° 284° (WNW) 09:00:34 437.475
AO-73 25 May 08:55:51 08:58:29 15° 93° (E) 09:01:06 145.935
ZACube-1 25 May 09:07:55 09:11:35 24° 96° (E) 09:15:15 437.345
CUBEBUG 2 25 May 09:12:18 09:16:55 86° 103° (ESE) 09:21:38 437.445
JUGNU 25 May 09:12:39 09:15:12 13° 196° (SSW) 09:17:43 437.505
AAUSAT CUBESAT 2 25 May 09:13:55 09:17:58 53° 100° (E) 09:21:58 437.432
PRISM 25 May 09:21:41 09:23:34 13° 67° (ENE) 09:25:25 437.425
UWE-3 25 May 09:26:12 09:30:48 73° 101° (E) 09:35:26 435.000/436.395/437.385
NO-84 25 May 09:30:19 09:34:43 73° 313° (NW) 09:39:02 435.350 FM
HO-68 25 May 09:32:18 09:39:11 51° 291° (WNW) 09:46:04 435.675
M-CUBED/EXP-1 PRIME 25 May 09:33:30 09:37:17 28° 257° (WSW) 09:40:53 437.505
SEEDS 25 May 09:45:10 09:48:41 26° 288° (WNW) 09:52:10 437.485
SRMSAT 25 May 09:47:06 09:51:30 21° 185° (S) 09:55:52 437.500
TIGRISAT 25 May 09:47:44 09:50:38 18° 69° (ENE) 09:53:33 435.000
RS-15 25 May 09:57:29 10:05:42 20° 31° (NNE) 10:13:39 29.354- 29.394
Oscar 11 25 May 10:05:45 10:10:07 80° 103° (ESE) 10:14:27 .
SO-50 25 May 10:14:39 10:15:45 11° 253° (WSW) 10:16:53 436.795
EO-88 25 May 10:16:23 10:18:33 15° 94° (E) 10:20:42 145.990 - 145.960
UNISAT 6 25 May 10:17:39 10:21:41 45° 74° (ENE) 10:25:48 437.425
AO-73 25 May 10:30:32 10:34:48 40° 286° (WNW) 10:39:04 145.935
ZACube-1 25 May 10:43:57 10:47:44 26° 289° (WNW) 10:51:32 437.345
FO-29 25 May 10:44:24 10:49:38 88° 78° (ENE) 10:54:52 435.910
PRISM 25 May 10:54:31 10:58:26 41° 261° (W) 11:02:21 437.425
NO-84 25 May 11:11:12 11:12:55 12° 328° (NNW) 11:14:38 435.350 FM
DELFI C3 25 May 11:22:27 11:26:10 42° 286° (WNW) 11:29:51 145.870
TIGRISAT 25 May 11:23:22 11:27:04 29° 263° (W) 11:30:50 435.000
AIST 2D 25 May 11:36:04 11:39:19 38° 75° (ENE) 11:42:37 435.315
SRMSAT 25 May 11:37:01 11:39:59 14° 194° (SSW) 11:42:57 437.500
ESTCUBE 1 25 May 11:43:58 11:46:26 14° 94° (E) 11:48:52 437.505/2401.250
EO-88 25 May 11:49:08 11:52:12 25° 287° (WNW) 11:55:14 145.990 - 145.960
NANOSAT C BR1 25 May 11:52:22 11:55:56 28° 72° (ENE) 11:59:32 145.865
POLYITAN 1 25 May 11:55:12 11:58:58 34° 73° (ENE) 12:02:47 437.675
UNISAT 6 25 May 11:57:17 11:58:37 11° 268° (W) 11:59:57 437.425
QB50P2 25 May 12:03:30 12:07:31 48° 74° (ENE) 12:11:34 145.880/145.840
DUCHIFAT 1 25 May 12:03:42 12:07:28 34° 73° (ENE) 12:11:15 145.980
RS-15 25 May 12:09:05 12:21:11 66° 58° (ENE) 12:32:36 29.354- 29.394
BUGSAT 1 25 May 12:29:03 12:31:51 19° 70° (ENE) 12:34:39 437.445
LO-87 25 May 12:36:54 12:40:21 53° 284° (WNW) 12:43:49 145.935 - 145.965
YUBILEINY 25 May 12:38:53 12:47:11 43° 77° (ENE) 12:55:24 435.215
EO-79 25 May 12:41:05 12:45:13 60° 260° (W) 12:49:21 145.935-145.965
VELOX 1 25 May 12:45:59 12:48:51 17° 95° (E) 12:51:42 145.980
SPROUT 25 May 12:51:13 12:54:23 20° 95° (E) 12:57:33 437.525
Gurwin Techsat 1B 25 May 13:03:47 13:05:25 11° 63° (ENE) 13:07:03 435.225
